Find Kuiper-00050

NORAD ID: 64510 Int'l Des: 2025-134 Owner: KUIP Country: US Constellation: amazon-leo operational
LEOCIRCULARSTARLINK_TYPE

当前视图

正在加载3D地球...

About Kuiper-00050

Kuiper-00050 (NORAD 64510) is a amazon-leo constellation satellite launched Jun 23, 2025 by KUIP of US. It operates in LEO, CIRCULAR, STARLINK_TYPE orbit with a mass of 490.00 kg.

即将过境

Passes for default location (London). Set your location on the main map for personalized predictions.

高度历史

Loading altitude history...

两行轨道根数

1 64510U 25134L 26263.71448968 .00001895 00000-0 27758-3 0 9992
2 64510 51.8991 68.1557 0000698 115.2439 244.8596 14.79926002 69273
Epoch: Sep 20, 2026 • Age: 19 hours

当前状态

高度 629.6 km
远地点 / 近地点 N/A
速度 7.55 km/s
星下点 21.17°N, 51.86°E
发射日期 Jun 23, 2025
运行时间 1.2 years
类型 internet

技术详情

分类 Payload
质量 490.00 kg
形状 ? Box + 2 pan
制造商 KUIP
平台类型 Kuiper
阶段状态 In Orbit
所有者/国家 KUIP/US

Most Searched